User: anonymous   Login
Location: Unspecified
(0.0000°N, 0.0000°E)
Time: 09:00:31
(UTC+00:00)
Language:

OBJECT B - Orbit

View from above orbital plane
View from above orbital plane
View from above satellite
View from above satellite

Ground track
Ground track

The orbit is defined by the following mean orbital elements,

1 57289U          26145.61570977 +.00000000 +00000-0 +46913-4 0 00001
2 57289  86.5047  12.5977 0014533 250.2228 109.7348 13.39549415    07
Epoch (UTC): 25 May 2026 14:46:37
Eccentricity: 0.0014533
inclination: 86.5047°
perigee height: 1100 km
apogee height: 1122 km
right ascension of ascending node: 12.5977°
argument of perigee: 250.2228°
revolutions per day: 13.39549415
mean anomaly at epoch: 109.7348°

The dashed part of the orbit path shows where the satellite is in the earth's shadow,  

DLR